This demonstration page uses our WeatherBlox Daily Observations layout. Learn more.

Left ArrowRight Arrow

39.92423, -83.80882

Hourly Observations for January 16, 2021

Temp ( °F °C ) Dew Point ( °F °C ) Humidity (%) Winds ( mph kmh ) Pressure ( in mb ) Visibility ( mi km ) Precip ( " mm )
12:56 am 00:56 Partly Cloudy 30 -1.1 29 -1.7 96 96 S 5 7 29.63 1004 10 16.0934 0 0
1:56 am 01:56 Mostly Cloudy 31 -0.6 30 -1.1 96 96 S 6 9 29.62 1003 10 16.0934 0 0
2:56 am 02:56 Cloudy 31 -0.6 30 -1.1 96 96 S 5 7 29.62 1003 10 16.0934 0 0
3:54 am 03:54 Cloudy with Light Snow 30 -1 30 -1 100 100 SW 6 9 29.65 1004 7 11.26538 0.001 0.001
3:56 am 03:56 Cloudy with Light Snow 31 -0.6 31 -0.6 100 100 SSW 6 9 29.62 1003 7 11.26538 0.001 0.001
4:03 am 04:03 Cloudy with Light Snow 30 -1 30 -1 100 100 SW 6 9 29.65 1004 5 8.0467 0.001 0.001
4:18 am 04:18 Cloudy with Light Snow 30 -1 30 -1 100 100 SW 6 9 29.65 1004 6 9.65604 0.001 0.001
4:28 am 04:28 Cloudy with Light Snow 30 -1 30 -1 100 100 SW 7 11 29.65 1004 4 6.43736 0.001 0.001
4:51 am 04:51 Cloudy with Light Snow 30 -1 30 -1 100 100 SW 7 11 29.64 1004 4 6.43736 0.001 0.001
4:56 am 04:56 Cloudy with Light Snow 30 -1.1 30 -1.1 100 100 SW 8 13 29.61 1003 4 6.43736 0.001 0.001
5:19 am 05:19 Cloudy with Light Snow 30 -1 30 -1 100 100 WSW 8 13 29.64 1004 4 6.43736 0.001 0.001
5:33 am 05:33 Cloudy with Light Snow 30 -1 30 -1 100 100 WSW 7 11 29.64 1004 3 4.82802 0.001 0.001
5:42 am 05:42 Cloudy with Light Snow 30 -1 30 -1 100 100 WSW 7 11 29.65 1004 2.5 4.02335 0.001 0.001
5:46 am 05:46 Cloudy with Light Snow 30 -1 30 -1 100 100 WSW 6 9 29.65 1004 3 4.82802 0.001 0.001
5:56 am 05:56 Cloudy with Light Snow 30 -1.1 30 -1.1 100 100 WSW 6 9 29.62 1003 3 4.82802 0.001 0.001
6:05 am 06:05 Cloudy with Light Snow 30 -1 30 -1 100 100 WSW 6 9 29.65 1004 4 6.43736 0.001 0.001
6:33 am 06:33 Cloudy with Light Snow 30 -1 30 -1 100 100 SW 3 6 29.65 1004 9 14.48406 0.001 0.001
6:56 am 06:56 Cloudy with Light Snow 30 -1.1 30 -1.1 100 100 WSW 3 6 29.62 1003 9 14.48406 0.001 0.001
7:03 am 07:03 Cloudy with Light Snow 28 -2 28 -2 100 100 WSW 5 7 29.65 1004 9 14.48406 0.001 0.001
7:43 am 07:43 Partly Cloudy 27 -3 27 -3 100 100 SSW 3 6 29.66 1004 10 16.0934 0.001 0.001
7:56 am 07:56 Mostly Sunny 27 -2.8 27 -2.8 100 100 SSW 5 7 29.63 1003 9 14.48406 0.001 0.001
8:28 am 08:28 Mostly Cloudy 28 -2 28 -2 100 100 WSW 8 13 29.66 1004 9 14.48406 0 0
8:56 am 08:56 Cloudy 29 -1.7 29 -1.7 100 100 WSW 6 9 29.65 1004 10 16.0934 0 0
9:26 am 09:26 Cloudy 30 -1 28 -2 93 93 WSW 7 11 29.68 1005 10 16.0934 0 0
9:38 am 09:38 Cloudy 30 -1 30 -1 100 100 WSW 6 9 29.68 1005 10 16.0934 0 0
9:56 am 09:56 Mostly Cloudy 31 -0.6 30 -1.1 96 96 WSW 7 11 29.65 1004 10 16.0934 0 0
10:10 am 10:10 Mostly Cloudy 30 -1 30 -1 100 100 WSW 10 17 29.68 1005 10 16.0934 0 0
10:46 am 10:46 Cloudy with Light Snow 30 -1 30 -1 100 100 W 9 15 29.68 1005 2 3.21868 0.001 0.001
10:49 am 10:49 Cloudy with Light Snow 30 -1 30 -1 100 100 W 10 17 29.68 1005 1.75 2.816345 0.001 0.001
10:56 am 10:56 Cloudy with Light Snow 31 -0.6 31 -0.6 100 100 WSW 9 15 29.66 1004 1.75 2.816345 0.001 0.001
11:01 am 11:01 Cloudy with Light Snow 30 -1 30 -1 100 100 W 10 17 29.68 1005 2 3.21868 0.001 0.001
11:10 am 11:10 Cloudy with Light Snow 30 -1 30 -1 100 100 WSW 9 15 29.68 1005 2 3.21868 0.001 0.001
11:36 am 11:36 Cloudy with Light Snow 30 -1 30 -1 100 100 W 13 20 29.68 1005 1.5 2.41401 0.001 0.001
11:56 am 11:56 Cloudy with Light Snow 30 -1.1 30 -1.1 100 100 W 14 22 29.65 1004 3 4.82802 0.001 0.001
12:19 pm 12:19 Cloudy with Light Snow 32 0 30 -1 93 93 W 15 24 29.66 1004 9 14.48406 0.001 0.001
12:38 pm 12:38 Cloudy 34 1 30 -1 87 87 WNW 15 24 29.66 1004 10 16.0934 0.001 0.001
12:56 pm 12:56 Mostly Cloudy 32 0 29 -1.7 88 88 W 12 19 29.64 1004 10 16.0934 0.001 0.001
1:03 pm 13:03 Mostly Cloudy 34 1 28 -2 81 81 W 9 15 29.65 1004 10 16.0934 0 0
1:20 pm 13:20 Cloudy 34 1 30 -1 87 87 W 12 19 29.65 1004 10 16.0934 0 0
1:56 pm 13:56 Cloudy 33 0.6 28 -2.2 82 82 W 14 22 29.64 1004 10 16.0934 0 0
2:56 pm 14:56 Cloudy 33 0.6 26 -3.3 75 75 W 12 19 29.65 1004 10 16.0934 0 0
3:56 pm 15:56 Cloudy 33 0.6 27 -2.8 78 78 W 17 28 29.66 1005 10 16.0934 0 0
4:06 pm 16:06 Cloudy 34 1 27 -3 75 75 W 14 22 29.69 1005 10 16.0934 0 0
4:29 pm 16:29 Cloudy with Light Rain 34 1 27 -3 75 75 W 14 22 29.7 1006 10 16.0934 0.001 0.001
4:56 pm 16:56 Cloudy with Light Snow 33 0.6 27 -2.8 78 78 WSW 10 17 29.69 1005 9 14.48406 0.001 0.001
5:56 pm 17:56 Cloudy with Light Snow 32 0 30 -1.1 92 92 SW 10 17 29.7 1006 6 9.65604 0.001 0.001
6:18 pm 18:18 Cloudy with Light Snow 30 -1 30 -1 100 100 SW 9 15 29.73 1007 5 8.0467 0.001 0.001
6:36 pm 18:36 Cloudy with Light Snow 30 -1 30 -1 100 100 SW 9 15 29.73 1007 2.5 4.02335 0.001 0.001
6:56 pm 18:56 Cloudy with Light Snow 31 -0.6 31 -0.6 100 100 SW 12 19 29.71 1006 3 4.82802 0.001 0.001
7:56 pm 19:56 Cloudy with Light Snow 32 0 32 0 100 100 SW 12 19 29.71 1006 4 6.43736 0.001 0.001
8:53 pm 20:53 Cloudy with Light Snow 32 0 32 0 100 100 WSW 15 24 29.72 1007 4 6.43736 0.001 0.001
8:56 pm 20:56 Cloudy with Light Snow 32 0 32 0 100 100 WSW 14 22 29.7 1006 4 6.43736 0.001 0.001
9:47 pm 21:47 Cloudy with Light Snow 32 0 32 0 100 100 WSW 14 22 29.72 1007 2.5 4.02335 0.001 0.001
9:56 pm 21:56 Cloudy with Light Snow 32 0 32 0 100 100 WSW 14 22 29.7 1006 4 6.43736 0.001 0.001
10:40 pm 22:40 Cloudy with Light Snow 34 1 34 1 100 100 W 14 22 29.73 1007 6 9.65604 0.001 0.001
10:56 pm 22:56 Cloudy with Light Snow 33 0.6 33 0.6 100 100 W 16 26 29.72 1006 7 11.26538 0.001 0.001
11:56 pm 23:56 Cloudy with Light Rain 33 0.6 33 0.6 100 100 WSW 15 24 29.72 1007 10 16.0934 0.001 0.001

Powered by AerisWeather